QPF
0.00 0.00 0.00 0.00 0.00 0.00 0.00 0.00 0.00 0.00 0.00 0.00 0.00 0.00 0.00 0.00 0.00 0.00 0.00 0.00 0.00 0.00 0.00 0.00 0.00 0.00 0.00 0.00 0.00 0.00 0.00 0.00 0.00 0.00 0.00 0.00 0.00 0.00 0.00 0.00 0.00 0.00 0.00
0.00 0.00 0.00 0.00 0.00 0.00 0.00 0.00 0.00 0.00 0.00 0.00 0.00 0.00 0.00 0.00 0.00 0.00 0.00 0.00 0.00 0.00 0.00 0.00 0.00 0.00 0.00 0.00 0.00 0.00 0.00 0.00 0.00 0.00 0.00 0.00 0.00 0.00 0.00 0.00 0.00 0.00 0.00
0.00 0.00 0.00 0.00 0.00 0.00 0.00 0.00 0.00 0.00 0.00 0.00 0.00 0.00 0.00 0.00 0.00 0.00 0.00 0.00 0.00 0.00 0.00 0.00 0.00 0.00 0.00 0.00 0.00 0.00 0.00 0.00 0.00 0.00 0.00 0.00 0.00 0.00 0.00 0.00 0.00 0.00 0.00
0.00 0.00 0.00 0.00 0.00 0.00 0.00 0.00 0.00 0.00 0.00 0.00 0.00 0.00 0.00 0.00 0.00 0.00 0.00 0.00 0.00 0.00 0.00 0.00 0.00 0.00 0.00 0.00 0.00 0.00 0.00 0.00 0.00 0.00 0.00 0.00 0.00 0.00 0.00 0.00 0.00 0.00 0.00
0.00 0.00 0.00 0.00 0.00 0.00 0.00 0.00 0.00 0.00 0.00 0.00 0.00 0.00 0.00 0.00 0.00 0.00 0.00 0.00 0.00 0.00 0.00 0.00 0.00 0.00 0.00 0.00 0.00 0.00 0.00 0.00 0.00 0.00 0.00 0.00 0.00 0.00 0.00 0.00 0.00 0.00 0.00
0.00 0.00 0.00 0.00 0.00 0.00 0.00 0.00 0.00 0.00 0.00 0.00 0.00 0.00 0.00 0.00 0.00 0.00 0.00 0.00 0.00 0.00 0.00 0.00 0.00 0.00 0.00 0.00 0.00 0.00 0.00 0.00 0.00 0.00 0.00 0.00 0.00 0.00 0.00 0.00 0.00 0.00 0.00
0.00 0.00 0.00 0.00 0.00 0.00 0.00 0.00 0.00 0.00 0.00 0.00 0.00 0.00 0.00 0.00 0.00 0.00 0.00 0.00 0.00 0.00 0.00 0.00 0.00 0.00 0.00 0.00 0.00 0.00 0.00 0.00 0.00 0.00 0.00 0.00 0.00 0.00 0.00 0.00 0.00 0.00 0.00
0.01 0.00 0.00 0.00 0.00 0.00 0.00 0.00 0.00 0.00 0.00 0.00 0.00 0.00 0.00 0.00 0.00 0.00 0.00 0.00 0.00 0.00 0.00 0.00 0.00 0.00 0.00 0.00 0.00 0.00 0.00 0.00 0.00 0.00 0.00 0.00 0.00 0.00 0.00 0.00 0.01 0.01 0.01
0.01 0.00 0.00 0.00 0.00 0.00 0.00 0.00 0.00 0.00 0.00 0.00 0.00 0.00 0.00 0.00 0.00 0.00 0.00 0.00 0.00 0.00 0.00 0.00 0.00 0.00 0.00 0.00 0.00 0.00 0.00 0.00 0.00 0.00 0.00 0.00 0.00 0.01 0.01 0.01 0.01 0.02 0.02
0.00 0.00 0.00 0.00 0.00 0.00 0.00 0.00 0.00 0.00 0.00 0.00 0.00 0.00 0.00 0.00 0.00 0.00 0.00 0.00 0.00 0.00 0.00 0.00 0.00 0.00 0.00 0.00 0.00 0.00 0.00 0.00 0.00 0.00 0.00 0.00 0.01 0.01 0.02 0.02 0.03 0.03 0.03
0.00 0.00 0.00 0.00 0.00 0.00 0.00 0.00 0.00 0.00 0.00 0.00 0.00 0.00 0.00 0.00 0.00 0.00 0.00 0.00 0.00 0.00 0.00 0.00 0.00 0.00 0.00 0.00 0.00 0.00 0.00 0.00 0.00 0.00 0.01 0.01 0.02 0.02 0.03 0.03 0.04 0.04 0.05
0.00 0.00 0.00 0.00 0.00 0.00 0.00 0.00 0.00 0.00 0.00 0.00 0.00 0.00 0.00 0.00 0.00 0.00 0.00 0.00 0.00 0.00 0.00 0.00 0.00 0.00 0.00 0.00 0.00 0.00 0.00 0.00 0.00 0.00 0.01 0.01 0.02 0.03 0.03 0.04 0.05 0.05 0.06
0.00 0.00 0.00 0.00 0.00 0.00 0.00 0.00 0.00 0.00 0.00 0.00 0.00 0.00 0.00 0.00 0.00 0.00 0.00 0.00 0.00 0.00 0.00 0.00 0.00 0.00 0.00 0.00 0.00 0.00 0.00 0.00 0.00 0.00 0.01 0.01 0.02 0.02 0.03 0.04 0.05 0.05 0.06
0.00 0.00 0.00 0.00 0.00 0.00 0.00 0.00 0.00 0.00 0.00 0.00 0.00 0.00 0.00 0.00 0.00 0.00 0.00 0.00 0.00 0.00 0.00 0.00 0.00 0.00 0.00 0.00 0.00 0.00 0.00 0.00 0.00 0.00 0.01 0.02 0.02 0.02 0.02 0.03 0.04 0.04 0.05
0.00 0.00 0.00 0.00 0.00 0.00 0.00 0.00 0.00 0.00 0.00 0.00 0.00 0.00 0.00 0.00 0.00 0.00 0.00 0.00 0.00 0.00 0.00 0.00 0.00 0.00 0.00 0.00 0.00 0.00 0.00 0.00 0.00 0.01 0.01 0.01 0.02 0.02 0.02 0.03 0.03 0.04 0.04
0.00 0.00 0.00 0.00 0.00 0.00 0.00 0.00 0.00 0.00 0.00 0.00 0.00 0.00 0.00 0.00 0.00 0.00 0.00 0.00 0.00 0.00 0.00 0.00 0.00 0.00 0.00 0.00 0.00 0.00 0.00 0.00 0.00 0.01 0.01 0.01 0.02 0.02 0.02 0.03 0.03 0.04 0.04
0.00 0.00 0.00 0.00 0.00 0.00 0.00 0.00 0.00 0.00 0.00 0.00 0.00 0.00 0.00 0.00 0.00 0.00 0.00 0.00 0.00 0.00 0.00 0.00 0.00 0.00 0.00 0.00 0.00 0.00 0.00 0.00 0.00 0.00 0.01 0.01 0.01 0.02 0.02 0.03 0.03 0.04 0.04
0.00 0.00 0.00 0.00 0.00 0.00 0.00 0.00 0.00 0.00 0.00 0.00 0.00 0.00 0.00 0.00 0.00 0.00 0.00 0.00 0.00 0.00 0.00 0.00 0.00 0.00 0.00 0.00 0.00 0.00 0.00 0.00 0.00 0.00 0.00 0.01 0.01 0.01 0.02 0.02 0.02 0.03 0.03
0.00 0.00 0.00 0.00 0.00 0.00 0.00 0.00 0.00 0.00 0.00 0.00 0.00 0.00 0.00 0.00 0.00 0.00 0.00 0.00 0.00 0.00 0.01 0.01 0.00 0.00 0.00 0.00 0.00 0.00 0.00 0.00 0.00 0.00 0.00 0.00 0.00 0.01 0.01 0.02 0.02 0.02 0.02
0.00 0.00 0.00 0.00 0.00 0.00 0.00 0.00 0.00 0.00 0.00 0.00 0.00 0.00 0.00 0.00 0.00 0.00 0.00 0.00 0.00 0.01 0.01 0.01 0.01 0.01 0.01 0.00 0.00 0.00 0.00 0.00 0.00 0.00 0.00 0.00 0.00 0.00 0.00 0.00 0.01 0.01 0.01
0.00 0.00 0.00 0.00 0.00 0.00 0.00 0.00 0.00 0.00 0.00 0.00 0.00 0.00 0.00 0.00 0.00 0.00 0.00 0.01 0.01 0.01 0.02 0.03 0.03 0.02 0.01 0.00 0.00 0.00 0.00 0.00 0.00 0.00 0.00 0.00 0.00 0.00 0.00 0.00 0.00 0.00 0.00
0.00 0.00 0.00 0.00 0.00 0.00 0.00 0.00 0.00 0.00 0.00 0.00 0.00 0.00 0.00 0.00 0.00 0.00 0.00 0.01 0.01 0.03 0.04 0.04 0.03 0.01 0.00 0.00 0.00 0.01 0.01 0.02 0.01 0.00 0.00 0.00 0.00 0.00 0.00 0.00 0.00 0.00 0.00
0.00 0.00 0.00 0.00 0.00 0.00 0.00 0.00 0.00 0.00 0.00 0.00 0.00 0.00 0.00 0.00 0.00 0.00 0.00 0.01 0.02 0.02 0.02 0.02 0.01 0.00 0.00 0.01 0.02 0.03 0.02 0.02 0.01 0.00 0.00 0.00 0.00 0.00 0.00 0.00 0.00 0.00 0.00
0.00 0.00 0.00 0.00 0.00 0.00 0.00 0.00 0.00 0.00 0.00 0.00 0.00 0.00 0.00 0.00 0.00 0.00 0.01 0.03 0.02 0.01 0.00 0.00 0.00 0.00 0.01 0.01 0.02 0.02 0.02 0.01 0.00 0.00 0.00 0.00 0.00 0.00 0.00 0.00 0.00 0.00 0.00
0.00 0.00 0.00 0.00 0.00 0.00 0.00 0.00 0.00 0.00 0.00 0.00 0.00 0.00 0.00 0.00 0.00 0.01 0.03 0.03 0.01 0.00 0.00 0.00 0.01 0.00 0.00 0.00 0.00 0.02 0.03 0.02 0.01 0.00 0.00 0.00 0.00 0.00 0.00 0.00 0.00 0.00 0.00
0.00 0.00 0.00 0.00 0.00 0.00 0.00 0.00 0.00 0.00 0.00 0.00 0.00 0.00 0.00 0.00 0.01 0.02 0.02 0.01 0.00 0.00 0.01 0.01 0.00 0.00 0.00 0.00 0.00 0.01 0.04 0.07 0.03 0.01 0.00 0.01 0.01 0.02 0.03 0.00 0.00 0.00 0.00
MSLP
1015.35 1015.68 1015.99 1016.28 1016.55 1016.79 1017.00 1017.16 1017.26 1017.29 1017.26 1017.16 1017.03 1016.91 1016.80 1016.76 1016.78 1016.88 1017.02 1017.18 1017.31 1017.37 1017.35 1017.22 1017.01 1016.73 1016.43 1016.14 1015.89 1015.69 1015.54 1015.43 1015.33 1015.22 1015.06 1014.86 1014.61 1014.33 1014.03 1013.73 1013.45 1013.19 1012.96
1015.15 1015.54 1015.90 1016.24 1016.56 1016.85 1017.10 1017.30 1017.43 1017.48 1017.45 1017.36 1017.24 1017.10 1017.00 1016.95 1016.99 1017.10 1017.27 1017.46 1017.63 1017.74 1017.75 1017.66 1017.46 1017.18 1016.86 1016.54 1016.25 1016.00 1015.81 1015.66 1015.53 1015.39 1015.22 1015.01 1014.76 1014.46 1014.15 1013.83 1013.52 1013.23 1012.97
1015.03 1015.47 1015.88 1016.26 1016.62 1016.94 1017.22 1017.44 1017.58 1017.65 1017.63 1017.54 1017.41 1017.27 1017.16 1017.10 1017.13 1017.23 1017.41 1017.61 1017.81 1017.95 1018.00 1017.95 1017.78 1017.52 1017.20 1016.86 1016.53 1016.24 1015.99 1015.79 1015.61 1015.43 1015.24 1015.01 1014.75 1014.45 1014.14 1013.81 1013.50 1013.20 1012.93
1015.03 1015.51 1015.96 1016.37 1016.75 1017.08 1017.37 1017.59 1017.74 1017.80 1017.78 1017.69 1017.56 1017.41 1017.28 1017.20 1017.20 1017.29 1017.44 1017.64 1017.85 1018.01 1018.09 1018.07 1017.94 1017.71 1017.40 1017.05 1016.70 1016.37 1016.06 1015.80 1015.56 1015.34 1015.11 1014.86 1014.58 1014.28 1013.97 1013.65 1013.34 1013.05 1012.77
1015.17 1015.69 1016.16 1016.58 1016.96 1017.29 1017.55 1017.76 1017.89 1017.95 1017.93 1017.83 1017.69 1017.53 1017.38 1017.27 1017.24 1017.28 1017.40 1017.57 1017.76 1017.92 1018.02 1018.03 1017.94 1017.74 1017.46 1017.12 1016.76 1016.39 1016.04 1015.72 1015.42 1015.13 1014.85 1014.57 1014.27 1013.96 1013.64 1013.32 1013.02 1012.73 1012.46
1015.43 1015.97 1016.45 1016.87 1017.23 1017.53 1017.77 1017.95 1018.06 1018.10 1018.07 1017.98 1017.83 1017.66 1017.49 1017.35 1017.27 1017.26 1017.32 1017.44 1017.58 1017.72 1017.82 1017.86 1017.80 1017.64 1017.39 1017.08 1016.72 1016.33 1015.95 1015.57 1015.21 1014.86 1014.52 1014.19 1013.85 1013.52 1013.18 1012.86 1012.55 1012.26 1011.98
1015.75 1016.30 1016.79 1017.20 1017.53 1017.80 1018.01 1018.15 1018.24 1018.27 1018.24 1018.14 1018.01 1017.84 1017.65 1017.48 1017.35 1017.27 1017.25 1017.29 1017.37 1017.47 1017.55 1017.58 1017.55 1017.43 1017.22 1016.94 1016.60 1016.21 1015.81 1015.39 1014.97 1014.57 1014.17 1013.77 1013.39 1013.01 1012.65 1012.30 1011.96 1011.65 1011.35
1016.07 1016.63 1017.11 1017.50 1017.82 1018.06 1018.23 1018.35 1018.43 1018.45 1018.43 1018.35 1018.23 1018.07 1017.88 1017.68 1017.49 1017.34 1017.24 1017.19 1017.18 1017.21 1017.24 1017.26 1017.24 1017.15 1016.98 1016.74 1016.43 1016.06 1015.64 1015.20 1014.74 1014.28 1013.82 1013.37 1012.93 1012.50 1012.08 1011.69 1011.31 1010.96 1010.63
1016.32 1016.88 1017.35 1017.74 1018.04 1018.26 1018.42 1018.54 1018.61 1018.65 1018.65 1018.61 1018.52 1018.37 1018.19 1017.97 1017.73 1017.50 1017.30 1017.15 1017.04 1016.98 1016.95 1016.93 1016.89 1016.82 1016.69 1016.48 1016.21 1015.87 1015.46 1015.01 1014.53 1014.02 1013.51 1013.00 1012.50 1012.01 1011.53 1011.08 1010.66 1010.25 1009.88
1016.46 1017.02 1017.49 1017.88 1018.17 1018.40 1018.57 1018.69 1018.79 1018.86 1018.90 1018.90 1018.85 1018.74 1018.56 1018.32 1018.04 1017.74 1017.45 1017.18 1016.96 1016.80 1016.68 1016.60 1016.54 1016.46 1016.35 1016.18 1015.94 1015.63 1015.25 1014.80 1014.30 1013.77 1013.22 1012.66 1012.10 1011.56 1011.03 1010.52 1010.03 1009.58 1009.16
1016.49 1017.05 1017.53 1017.92 1018.23 1018.48 1018.67 1018.82 1018.95 1019.06 1019.15 1019.20 1019.20 1019.12 1018.96 1018.71 1018.40 1018.03 1017.65 1017.27 1016.94 1016.66 1016.45 1016.30 1016.19 1016.09 1015.98 1015.83 1015.61 1015.33 1014.97 1014.54 1014.04 1013.50 1012.92 1012.33 1011.73 1011.13 1010.55 1009.99 1009.46 1008.96 1008.49
1016.45 1017.01 1017.50 1017.91 1018.25 1018.51 1018.74 1018.93 1019.10 1019.25 1019.39 1019.48 1019.52 1019.47 1019.33 1019.08 1018.74 1018.32 1017.86 1017.39 1016.95 1016.56 1016.25 1016.01 1015.83 1015.69 1015.56 1015.40 1015.20 1014.94 1014.60 1014.18 1013.69 1013.14 1012.56 1011.94 1011.32 1010.69 1010.08 1009.49 1008.92 1008.38 1007.89
1016.37 1016.95 1017.46 1017.89 1018.25 1018.55 1018.80 1019.02 1019.22 1019.41 1019.58 1019.71 1019.77 1019.75 1019.63 1019.38 1019.02 1018.57 1018.05 1017.50 1016.97 1016.48 1016.07 1015.73 1015.47 1015.27 1015.09 1014.91 1014.70 1014.44 1014.10 1013.70 1013.21 1012.67 1012.08 1011.46 1010.82 1010.19 1009.56 1008.95 1008.37 1007.82 1007.31
1016.34 1016.93 1017.45 1017.90 1018.28 1018.60 1018.87 1019.10 1019.32 1019.52 1019.69 1019.83 1019.92 1019.91 1019.80 1019.56 1019.20 1018.72 1018.17 1017.57 1016.97 1016.40 1015.89 1015.46 1015.12 1014.83 1014.59 1014.36 1014.12 1013.83 1013.48 1013.07 1012.59 1012.05 1011.46 1010.84 1010.20 1009.56 1008.93 1008.33 1007.75 1007.21 1006.70
1016.38 1016.98 1017.52 1017.98 1018.37 1018.69 1018.95 1019.18 1019.37 1019.55 1019.71 1019.84 1019.92 1019.92 1019.81 1019.59 1019.24 1018.77 1018.20 1017.58 1016.93 1016.31 1015.72 1015.21 1014.77 1014.40 1014.07 1013.77 1013.46 1013.13 1012.75 1012.31 1011.82 1011.27 1010.67 1010.05 1009.42 1008.78 1008.17 1007.57 1007.01 1006.49 1006.00
1016.52 1017.14 1017.68 1018.14 1018.51 1018.81 1019.04 1019.23 1019.38 1019.51 1019.63 1019.72 1019.78 1019.77 1019.67 1019.46 1019.14 1018.70 1018.15 1017.53 1016.87 1016.20 1015.57 1014.98 1014.45 1013.98 1013.56 1013.17 1012.78 1012.38 1011.94 1011.46 1010.93 1010.35 1009.74 1009.11 1008.47 1007.84 1007.23 1006.65 1006.11 1005.61 1005.16
1016.77 1017.38 1017.92 1018.36 1018.70 1018.96 1019.13 1019.25 1019.34 1019.40 1019.45 1019.49 1019.51 1019.48 1019.39 1019.21 1018.92 1018.52 1018.01 1017.42 1016.77 1016.09 1015.42 1014.77 1014.16 1013.60 1013.08 1012.59 1012.11 1011.62 1011.11 1010.56 1009.98 1009.36 1008.71 1008.06 1007.40 1006.75 1006.14 1005.57 1005.04 1004.56 1004.13
1017.08 1017.68 1018.20 1018.61 1018.91 1019.10 1019.21 1019.25 1019.25 1019.22 1019.20 1019.18 1019.15 1019.11 1019.02 1018.86 1018.62 1018.26 1017.81 1017.26 1016.64 1015.97 1015.27 1014.58 1013.91 1013.27 1012.65 1012.06 1011.48 1010.90 1010.31 1009.69 1009.03 1008.36 1007.66 1006.95 1006.26 1005.58 1004.95 1004.36 1003.83 1003.36 1002.94
1017.41 1018.00 1018.48 1018.85 1019.10 1019.23 1019.26 1019.21 1019.12 1019.02 1018.92 1018.83 1018.76 1018.69 1018.60 1018.47 1018.26 1017.95 1017.55 1017.05 1016.46 1015.81 1015.11 1014.39 1013.67 1012.96 1012.27 1011.59 1010.93 1010.26 1009.58 1008.88 1008.16 1007.41 1006.65 1005.88 1005.12 1004.39 1003.71 1003.09 1002.54 1002.05 1001.63
1017.74 1018.30 1018.74 1019.06 1019.25 1019.31 1019.27 1019.16 1018.99 1018.81 1018.64 1018.50 1018.38 1018.29 1018.19 1018.06 1017.87 1017.61 1017.24 1016.78 1016.22 1015.58 1014.89 1014.15 1013.40 1012.65 1011.91 1011.17 1010.44 1009.71 1008.96 1008.19 1007.40 1006.58 1005.74 1004.90 1004.07 1003.27 1002.52 1001.84 1001.23 1000.71 1000.27
1018.03 1018.54 1018.94 1019.21 1019.35 1019.36 1019.26 1019.09 1018.86 1018.62 1018.40 1018.21 1018.05 1017.92 1017.80 1017.66 1017.48 1017.22 1016.87 1016.43 1015.89 1015.27 1014.58 1013.85 1013.09 1012.32 1011.55 1010.78 1010.01 1009.24 1008.45 1007.64 1006.79 1005.91 1005.00 1004.08 1003.16 1002.28 1001.44 1000.67 999.99 999.40 998.91
1018.26 1018.73 1019.08 1019.30 1019.39 1019.36 1019.22 1019.01 1018.75 1018.47 1018.21 1017.98 1017.78 1017.61 1017.45 1017.28 1017.07 1016.79 1016.44 1015.99 1015.46 1014.84 1014.16 1013.43 1012.68 1011.92 1011.15 1010.39 1009.62 1008.84 1008.04 1007.20 1006.32 1005.39 1004.42 1003.43 1002.43 1001.45 1000.52 999.65 998.88 998.20 997.63
1018.45 1018.85 1019.15 1019.33 1019.38 1019.32 1019.16 1018.93 1018.65 1018.35 1018.06 1017.79 1017.55 1017.33 1017.12 1016.90 1016.63 1016.31 1015.92 1015.45 1014.90 1014.28 1013.61 1012.90 1012.17 1011.44 1010.71 1009.98 1009.24 1008.49 1007.70 1006.86 1005.97 1005.01 1004.00 1002.95 1001.88 1000.81 999.77 998.80 997.91 997.13 996.45
1018.59 1018.93 1019.17 1019.30 1019.32 1019.24 1019.07 1018.83 1018.55 1018.24 1017.94 1017.64 1017.36 1017.08 1016.80 1016.50 1016.17 1015.78 1015.33 1014.81 1014.24 1013.61 1012.95 1012.26 1011.57 1010.89 1010.21 1009.53 1008.85 1008.14 1007.39 1006.58 1005.70 1004.73 1003.70 1002.60 1001.46 1000.31 999.18 998.11 997.11 996.20 995.41
1018.70 1018.97 1019.15 1019.23 1019.22 1019.12 1018.94 1018.70 1018.42 1018.12 1017.80 1017.47 1017.15 1016.82 1016.46 1016.09 1015.67 1015.20 1014.69 1014.12 1013.51 1012.88 1012.22 1011.57 1010.92 1010.29 1009.68 1009.06 1008.44 1007.79 1007.08 1006.30 1005.44 1004.48 1003.43 1002.30 1001.12 999.91 998.70 997.53 996.42 995.40 994.47
1018.79 1018.98 1019.09 1019.12 1019.07 1018.95 1018.77 1018.53 1018.26 1017.95 1017.62 1017.27 1016.91 1016.52 1016.10 1015.65 1015.15 1014.62 1014.04 1013.43 1012.79 1012.15 1011.51 1010.89 1010.28 1009.70 1009.14 1008.59 1008.02 1007.41 1006.74 1005.99 1005.14 1004.19 1003.14 1002.00 1000.79 999.53 998.26 997.02 995.81 994.68 993.62
Thickness
5672 5670 5667 5663 5661 5659 5657 5654 5653 5650 5649 5647 5645 5644 5643 5641 5639 5637 5633 5629 5628 5627 5625 5623 5622 5621 5621 5621 5621 5621 5620 5620 5620 5621 5621 5622 5623 5624 5626 5627 5629 5630 5632
5667 5663 5659 5655 5653 5651 5648 5647 5645 5642 5641 5639 5637 5636 5635 5633 5631 5628 5625 5620 5617 5615 5614 5612 5611 5610 5610 5610 5611 5611 5611 5610 5610 5610 5610 5611 5612 5613 5615 5616 5618 5620 5622
5661 5656 5653 5649 5645 5642 5640 5638 5636 5634 5632 5631 5630 5629 5627 5625 5622 5619 5615 5612 5608 5604 5602 5600 5599 5599 5599 5599 5600 5601 5601 5600 5600 5599 5600 5600 5601 5602 5603 5604 5606 5608 5610
5655 5650 5646 5641 5637 5634 5632 5629 5628 5626 5625 5624 5624 5622 5620 5616 5614 5610 5606 5602 5598 5595 5592 5589 5588 5588 5588 5588 5589 5589 5589 5589 5589 5589 5589 5589 5590 5591 5591 5592 5594 5596 5598
5648 5643 5638 5633 5629 5626 5623 5621 5619 5618 5616 5614 5615 5614 5611 5609 5605 5600 5597 5592 5588 5585 5583 5581 5579 5578 5577 5577 5577 5577 5577 5577 5577 5577 5577 5578 5578 5579 5579 5580 5581 5582 5585
5640 5635 5630 5625 5621 5618 5615 5613 5610 5607 5605 5603 5605 5605 5602 5599 5596 5592 5588 5583 5579 5575 5573 5571 5570 5570 5568 5566 5565 5564 5563 5563 5563 5564 5564 5565 5565 5566 5567 5567 5568 5569 5571
5631 5627 5622 5617 5614 5611 5608 5606 5603 5599 5595 5593 5596 5597 5594 5590 5587 5582 5578 5575 5571 5566 5563 5561 5559 5558 5557 5556 5553 5551 5549 5549 5548 5549 5549 5550 5551 5552 5553 5554 5554 5555 5557
5623 5618 5615 5610 5606 5602 5599 5596 5593 5590 5585 5582 5583 5586 5586 5586 5579 5573 5568 5564 5561 5557 5553 5548 5545 5543 5543 5542 5540 5537 5534 5533 5532 5532 5533 5533 5534 5535 5536 5538 5539 5540 5542
5614 5609 5605 5601 5597 5594 5589 5585 5582 5580 5577 5572 5569 5571 5572 5573 5568 5565 5560 5554 5549 5544 5539 5535 5531 5529 5527 5525 5524 5522 5518 5516 5514 5515 5515 5515 5516 5517 5518 5519 5521 5523 5524
5604 5600 5596 5592 5588 5584 5579 5575 5571 5567 5565 5562 5557 5552 5551 5550 5549 5555 5556 5548 5541 5534 5528 5523 5519 5516 5514 5511 5508 5505 5502 5499 5497 5496 5496 5496 5497 5498 5498 5499 5500 5502 5503
5594 5590 5586 5582 5578 5574 5569 5564 5559 5555 5552 5549 5545 5541 5539 5535 5533 5531 5539 5538 5533 5527 5520 5514 5509 5505 5501 5497 5493 5490 5485 5482 5479 5478 5478 5478 5477 5477 5476 5476 5476 5477 5477
5585 5580 5576 5572 5568 5563 5558 5553 5548 5544 5540 5535 5531 5528 5526 5524 5523 5519 5520 5521 5520 5516 5510 5504 5498 5492 5486 5481 5477 5473 5468 5464 5462 5460 5458 5456 5454 5452 5450 5448 5447 5446 5445
5578 5572 5567 5563 5558 5552 5547 5543 5538 5533 5528 5524 5520 5516 5513 5508 5504 5500 5499 5500 5501 5501 5498 5493 5486 5479 5471 5465 5461 5454 5450 5445 5441 5437 5433 5429 5425 5420 5415 5412 5409 5408 5407
5572 5564 5558 5553 5547 5542 5537 5532 5528 5522 5517 5512 5508 5503 5499 5495 5490 5486 5482 5479 5484 5489 5485 5479 5470 5460 5451 5444 5438 5431 5428 5422 5415 5409 5402 5396 5389 5382 5376 5372 5369 5367 5366
5562 5554 5548 5542 5537 5532 5527 5522 5518 5512 5506 5502 5497 5492 5487 5482 5476 5471 5466 5461 5458 5465 5471 5462 5452 5441 5430 5422 5414 5406 5401 5394 5385 5376 5367 5361 5354 5348 5344 5341 5339 5337 5336
5553 5545 5538 5532 5527 5522 5517 5512 5507 5501 5496 5491 5485 5480 5475 5469 5463 5457 5452 5446 5440 5439 5445 5445 5432 5421 5410 5400 5390 5381 5374 5365 5355 5346 5338 5333 5329 5326 5324 5322 5322 5321 5320
5543 5536 5529 5523 5517 5512 5507 5502 5497 5491 5486 5481 5475 5469 5462 5455 5449 5443 5437 5431 5425 5421 5424 5429 5413 5403 5390 5379 5369 5357 5346 5337 5331 5325 5320 5317 5315 5314 5313 5312 5312 5312 5311
5533 5525 5519 5513 5507 5502 5496 5492 5487 5481 5476 5470 5463 5457 5450 5442 5434 5428 5422 5416 5410 5403 5400 5404 5398 5384 5372 5357 5346 5335 5325 5316 5313 5312 5310 5309 5308 5308 5308 5308 5307 5306 5306
5522 5514 5508 5503 5497 5491 5486 5481 5476 5471 5464 5458 5450 5443 5435 5427 5421 5414 5407 5400 5393 5386 5378 5375 5376 5365 5352 5336 5325 5318 5310 5305 5303 5303 5303 5304 5305 5305 5305 5304 5303 5302 5301
5511 5504 5498 5492 5485 5480 5474 5470 5465 5459 5453 5446 5438 5429 5421 5414 5406 5399 5393 5385 5376 5368 5359 5351 5347 5340 5329 5317 5306 5304 5304 5298 5297 5297 5300 5301 5302 5302 5302 5300 5299 5298 5296
5500 5493 5487 5481 5475 5469 5464 5459 5454 5448 5441 5434 5426 5418 5410 5401 5392 5383 5375 5367 5356 5346 5335 5326 5319 5312 5306 5300 5296 5293 5292 5293 5294 5291 5298 5300 5298 5300 5300 5299 5298 5296 5293
5489 5483 5477 5470 5464 5458 5450 5445 5439 5435 5430 5423 5415 5408 5400 5391 5382 5372 5360 5348 5333 5321 5311 5302 5296 5290 5288 5286 5285 5283 5282 5286 5292 5290 5291 5297 5293 5298 5298 5298 5298 5295 5293
5480 5473 5467 5460 5455 5447 5439 5433 5428 5423 5418 5410 5403 5396 5388 5379 5367 5357 5346 5333 5318 5302 5289 5282 5279 5277 5277 5275 5274 5276 5277 5278 5281 5282 5283 5294 5294 5296 5297 5298 5297 5296 5295
5470 5463 5457 5450 5443 5436 5427 5422 5416 5413 5406 5399 5390 5382 5373 5363 5350 5338 5329 5317 5303 5290 5279 5272 5269 5268 5268 5267 5266 5267 5268 5273 5278 5277 5277 5284 5291 5294 5296 5297 5298 5298 5298
5459 5452 5446 5439 5433 5426 5416 5410 5405 5401 5396 5388 5378 5368 5357 5345 5333 5320 5309 5299 5289 5280 5271 5265 5263 5264 5264 5263 5261 5261 5262 5265 5273 5278 5274 5277 5284 5287 5291 5295 5300 5301 5301
5448 5442 5435 5429 5422 5415 5406 5400 5393 5391 5386 5377 5366 5354 5341 5327 5312 5299 5289 5282 5278 5272 5266 5264 5263 5263 5262 5261 5259 5256 5254 5255 5260 5268 5274 5272 5273 5274 5288 5299 5299 5300 5303